Location: Umburanas
(4.5000°S, 37.9667°W)
Time: 16:06:23
(UTC+00:00)

Cosmos 2227 Rocket - Pass Details

Date: 19 November 2019
Orbit: 838 x 846 km, 71.0° (Epoch: 05 December)

Event Time Altitude Azimuth Distance (km) Brightness Sun altitude
Rises 21:16:18 0° 334° (NNW) 3,380 5.4 -12.3°
Reaches altitude 10° 21:18:48 10° 328° (NNW) 2,447 4.7 -12.9°
Maximum altitude 21:24:12 49° 254° (WSW) 1,072 3.2 -14.1°
Drops below altitude 10° 21:29:38 10° 180° (S) 2,456 4.9 -15.4°
Sets 21:32:09 0° 174° (S) 3,392 5.6 -16.0°
